Flag for China Weather past 2 weeks in Zhengzhou, Henan, China

Now
91 °F

Passing clouds.


Feels Like: 89 °F
Forecast: 67 / 95 °F
Wind: 6 mph from Southeast

Location: Zhengzhou Airport

Current Time: Jul 26, 2014 at 6:06:37 PM

Latest Report: Jul 26, 2014 at 5:00 PM


Visibility: N/A

Pressure: 29.80 "Hg

Humidity: 28%

Dew point: 54 °F

Location of ZhengzhouLocation

Historic Weather in Zhengzhou — Graph

°F

Zhengzhou temperature yesterday

Maximum temperature yesterday: 90 °F (at 2:00 PM)
Minimum temperature yesterday: 72 °F (at 11:00 PM)
Average temperature yesterday: 81 °F

Past Weeks' High & Low Weather Summary

 TemperatureHumidityPressure
High100 °F (Jul 21, 3:00 PM)94% (Jul 13, 6:00 AM)29.89 "Hg (Jul 13, 6:00 AM)
Low68 °F (Jul 15, 5:00 AM)26% (Jul 13, 2:00 PM)29.53 "Hg (Jul 21, 4:00 PM)
Average83 °F63%29.69 "Hg
* Reported Jul 11 5:00 PM — Jul 26 5:00 PM, Zhengzhou, Weather by CustomWeather, © 2014

Note: Actual official high and low records may vary slightly from our data, if they occured in-between our weather recording intervals... More about our weather records

Advertising

Zhengzhou weather history for previous 24 hours

 ConditionsComfort  
Time TempWeatherWind HumidityBarometerVisibility
5:00 PM
Jul 26
91 °FPassing clouds.6 mph28%29.80 "HgN/A
4:00 PM91 °FPassing clouds.6 mph32%29.80 "HgN/A
3:00 PM91 °FPassing clouds.3 mph34%29.83 "HgN/A
2:00 PM90 °FPassing clouds.6 mph38%29.83 "HgN/A
1:00 PM90 °FPassing clouds.8 mph41%29.86 "HgN/A
12:00 PM90 °FPassing clouds.6 mph41%29.86 "HgN/A
11:00 AM88 °FSunny.3 mph43%29.89 "Hg10 mi
10:00 AM84 °FClear.3 mph45%29.89 "Hg5 mi
9:00 AM82 °FClear.3 mph51%29.89 "Hg4 mi
8:00 AM79 °FHaze.3 mph58%29.89 "Hg3 mi
7:00 AM75 °FFog.1 mph74%29.86 "Hg2 mi
6:00 AM68 °FFog.No wind83%29.86 "Hg2 mi
5:00 AM68 °FFog.No wind83%29.83 "Hg3 mi
4:00 AM68 °FFog.1 mph83%29.83 "Hg3 mi
3:00 AM68 °FClear.No wind83%29.83 "Hg4 mi
2:00 AM70 °FClear.No wind83%29.83 "Hg4 mi
1:00 AM72 °FClear.1 mph78%29.83 "Hg5 mi
12:00 AM72 °FClear.1 mph78%29.83 "Hg10 mi
11:00 PM
Jul 25
72 °FClear.1 mph78%29.83 "Hg10 mi
10:00 PM73 °FClear.1 mph74%29.83 "Hg10 mi
9:00 PM77 °FClear.1 mph61%29.80 "Hg10 mi
8:00 PM82 °FClear.3 mph48%29.77 "Hg10 mi
7:00 PM84 °FPassing clouds.8 mph45%29.74 "HgN/A
6:00 PM86 °FSunny.10 mph40%29.71 "Hg10 mi
Weather by CustomWeather, © 2014

See weather overviewHow to use our weather pages